Location: Newark
(48.2308°N, 120.8549°W)
Time: 04:54:43
(UTC+00:00)

Tiangong - Pass Details

Date: 26 June 2021
Orbit: 373 x 386 km, 41.5° (Epoch: 03 August)

Event Time Altitude Azimuth Distance (km) Brightness Sun altitude
Exits shadow 10:47:18 15° 223° (SW) 1,113 2.7 -9.9°
Maximum altitude 10:49:00 23° 180° (S) 846 2.3 -9.7°
Drops below altitude 10° 10:51:35 10° 124° (SE) 1,392 3.9 -9.4°
Sets 10:53:53 0° 110° (ESE) 2,248 5.2 -9.2°
